Location: Biltmore Gardens
(41.6070°N, 83.4666°W)
Time: 08:53:22
(UTC+00:00)

Cosmos 2344 - Pass Details

Date: 23 October 2020
Orbit: 1246 x 2997 km, 63.3° (Epoch: 03 December)

Event Time Altitude Azimuth Distance (km) Brightness Sun altitude
Exits shadow 09:55:22 40° 254° (WSW) 1,764 3.8 -23.1°
Maximum altitude 09:57:59 58° 312° (NW) 1,436 3.6 -22.6°
Drops below altitude 10° 10:05:49 10° 31° (NNE) 3,457 6.3 -21.2°
Sets 10:08:59 0° 36° (NE) 4,585 7.0 -20.6°
